Flag for U.S.A. Weather past 2 weeks in Pembroke Pines, Florida, U.S.A.

Now
83 °F

Sunny.


Feels Like: 90 °F
Forecast: 79 / 89 °F
Wind: 3 mph from Southeast

Location: North Perry Airport

Current Time: Aug 2, 2015 at 8:52:58 AM

Latest Report: Aug 2, 2015 at 7:53 AM


Visibility: 10 mi

Pressure: 29.96 "Hg

Humidity: 77%

Dew point: 75 °F

Location of Pembroke PinesLocation

Historic Weather in Pembroke Pines — Graph

°F

Pembroke Pines temperature yesterday

Maximum temperature yesterday: 94 °F (at 2:53 PM)
Minimum temperature yesterday: 76 °F (at 5:53 AM)
Average temperature yesterday: 83 °F

Past Weeks' High & Low Weather Summary

 TemperatureHumidityPressure
High97 °F (Jul 28, 2:53 PM)94% (Jul 25, 5:53 PM)30.11 "Hg (Jul 25, 5:53 PM)
Low75 °F (Jul 25, 5:53 PM)36% (Jul 28, 2:53 PM)29.89 "Hg (Jul 26, 4:53 AM)
Average84 °F71%30.01 "Hg
* Reported Jul 18 7:53 AM — Aug 2 7:53 AM, Pembroke Pines, Weather by CustomWeather, © 2015

Note: Actual official high and low records may vary slightly from our data, if they occured in-between our weather recording intervals... More about our weather records

Advertising

Pembroke Pines weather history for previous 24 hours

 ConditionsComfort  
Time TempWeatherWind HumidityBarometerVisibility
7:53 AM
Sun, Aug 2
83 °FSunny.3 mph77%29.96 "Hg10 mi
6:53 AM82 °FClear.3 mph74%29.96 "Hg10 mi
5:53 AM82 °FPassing clouds.5 mph79%29.96 "Hg10 mi
4:53 AM81 °FClear.3 mph82%29.96 "Hg10 mi
3:53 AM82 °FClear.3 mph77%29.96 "Hg10 mi
2:53 AM81 °FClear.No wind77%29.98 "Hg10 mi
1:53 AM83 °FPassing clouds.No wind70%30.00 "Hg10 mi
12:53 AM83 °FClear.5 mph74%30.01 "Hg10 mi
11:53 PM
Sat, Aug 1
81 °FClear.No wind79%30.01 "Hg10 mi
10:53 PM83 °FClear.No wind72%30.02 "Hg10 mi
9:53 PM80 °FClear.No wind76%30.01 "Hg10 mi
8:53 PM79 °FScattered clouds.5 mph79%29.98 "Hg10 mi
7:53 PM80 °FLight rain. Broken clouds.6 mph74%29.97 "Hg10 mi
6:53 PM88 °FSunny.N/A59%29.97 "Hg10 mi
5:53 PM89 °FSunny.10 mph57%29.96 "Hg10 mi
4:53 PM90 °FSunny.10 mph56%29.96 "Hg10 mi
3:53 PM91 °FSunny.12 mph52%29.97 "Hg10 mi
2:53 PM94 °FSunny.10 mph48%29.98 "Hg10 mi
1:53 PM92 °FScattered clouds.12 mph54%30.00 "Hg10 mi
12:53 PM93 °FScattered clouds.13 mph52%30.02 "Hg10 mi
11:53 AM91 °FSunny.15 mph54%30.02 "Hg10 mi
10:53 AM89 °FPartly sunny.10 mph63%30.02 "Hg10 mi
9:53 AM84 °FSunny.No wind70%30.01 "Hg10 mi
8:53 AM81 °FSunny.5 mph74%30.02 "Hg10 mi
Weather by CustomWeather, © 2015

See weather overviewHow to use our weather pages